Flag for Germany Weather past 2 weeks in Vechta, Lower Saxony, Germany

Now
63 °F

Broken clouds.


Feels Like: 63 °F
Forecast: 56 / 62 °F
Wind: 3 mph from North

Location: Bremen Airport

Current Time: Sep 20, 2014 at 10:25:01 AM

Latest Report: Sep 20, 2014 at 9:50 AM


Visibility: 5 mi

Pressure: 29.92 "Hg

Humidity: 88%

Dew point: 59 °F

Location of VechtaLocation

Historic Weather in Vechta — Graph

°F

Vechta temperature yesterday

Maximum temperature yesterday: 75 °F (at 2:50 PM)
Minimum temperature yesterday: 55 °F (at 4:50 AM)
Average temperature yesterday: 65 °F

Past Weeks' High & Low Weather Summary

 TemperatureHumidityPressure
High79 °F (Sep 5, 2:50 PM)100% (Sep 6, 3:50 AM)30.24 "Hg (Sep 6, 3:50 AM)
Low50 °F (Sep 9, 7:20 AM)46% (Sep 8, 3:50 PM)29.86 "Hg (Sep 6, 3:50 PM)
Average63 °F81%30.03 "Hg
* Reported Sep 5 9:20 AM — Sep 20 9:20 AM, Vechta, Weather by CustomWeather, © 2014

Note: Actual official high and low records may vary slightly from our data, if they occured in-between our weather recording intervals... More about our weather records

Advertising

Vechta weather history for previous 24 hours

 ConditionsComfort  
Time TempWeatherWind HumidityBarometerVisibility
9:20 AM
Sep 20
61 °FPartly sunny.3 mph94%29.92 "Hg5 mi
8:50 AM61 °FBroken clouds.2 mph94%29.92 "Hg4 mi
8:20 AM59 °FBroken clouds.1 mph94%29.92 "Hg4 mi
7:50 AM57 °FFog.1 mph94%29.92 "Hg3 mi
7:20 AM57 °FFog.1 mph94%29.89 "Hg3 mi
6:50 AM59 °FPassing clouds.5 mph94%29.89 "Hg4 mi
6:20 AM59 °FPartly cloudy.5 mph94%29.89 "HgN/A
5:50 AM59 °FPartly cloudy.3 mph94%29.89 "HgN/A
5:20 AM59 °FFog.3 mph94%29.89 "HgN/A
4:50 AM59 °FFog.2 mph94%29.89 "HgN/A
4:20 AM59 °FPartly cloudy.5 mph94%29.89 "HgN/A
3:50 AM61 °FPassing clouds.5 mph88%29.89 "HgN/A
3:20 AM61 °FPassing clouds.3 mph94%29.89 "HgN/A
2:50 AM61 °FPartly cloudy.5 mph94%29.89 "HgN/A
1:50 AM63 °FClear.5 mph88%29.89 "Hg10 mi
1:20 AM63 °FPassing clouds.3 mph88%29.89 "HgN/A
12:50 AM63 °FPassing clouds.5 mph88%29.89 "HgN/A
12:20 AM64 °FPassing clouds.3 mph88%29.89 "HgN/A
11:50 PM
Sep 19
66 °FPassing clouds.5 mph83%29.89 "HgN/A
11:20 PM66 °FMild.7 mph83%29.89 "HgN/A
10:50 PM68 °FPassing clouds.6 mph78%29.89 "HgN/A
10:20 PM66 °FPassing clouds.6 mph83%29.89 "HgN/A
9:50 PM66 °FPassing clouds.6 mph83%29.89 "HgN/A
9:20 PM66 °FClear.6 mph78%29.89 "Hg10 mi
8:50 PM68 °FClear.5 mph78%29.89 "Hg10 mi
8:20 PM68 °FScattered clouds.5 mph78%29.89 "HgN/A
7:50 PM68 °FScattered clouds.3 mph73%29.89 "HgN/A
7:20 PM70 °FScattered clouds.5 mph73%29.86 "HgN/A
6:50 PM72 °FScattered clouds.6 mph69%29.86 "HgN/A
6:20 PM72 °FPartly sunny.7 mph69%29.86 "HgN/A
5:50 PM72 °FScattered clouds.9 mph69%29.86 "HgN/A
5:20 PM73 °FScattered clouds.9 mph65%29.86 "HgN/A
4:50 PM73 °FScattered clouds.9 mph61%29.86 "HgN/A
4:20 PM75 °FScattered clouds.8 mph57%29.86 "HgN/A
3:50 PM75 °FScattered clouds.7 mph61%29.86 "HgN/A
3:20 PM75 °FScattered clouds.7 mph61%29.86 "HgN/A
2:50 PM75 °FScattered clouds.6 mph57%29.86 "HgN/A
2:20 PM73 °FScattered clouds.7 mph61%29.86 "HgN/A
1:50 PM73 °FScattered clouds.7 mph61%29.86 "HgN/A
1:20 PM72 °FPassing clouds.7 mph65%29.89 "HgN/A
12:50 PM72 °FPassing clouds.6 mph65%29.89 "HgN/A
12:20 PM72 °FPassing clouds.8 mph65%29.89 "HgN/A
11:50 AM70 °FPassing clouds.7 mph69%29.89 "HgN/A
11:20 AM70 °FPassing clouds.7 mph73%29.89 "HgN/A
10:50 AM68 °FPassing clouds.6 mph73%29.89 "HgN/A
10:20 AM66 °FPassing clouds.6 mph78%29.89 "HgN/A
Weather by CustomWeather, © 2014

See weather overviewHow to use our weather pages